sat.trackr.live / text

‹ back to catalog

GPS BIII-1 (PRN 04)

NORAD 43873 · 2018-109A

PAYLOAD ACTIVE UNKNOWN

§ Identity

Operator
Country
US
Launch date
2018-12-23
Launch site
AFETR
Launch vehicle
Mass (kg)
RCS (m²)

Purposes: earth_obs, nav

External: N2YO · Heavens-Above · Gunter

§ Orbital elements

Epoch: 2026-05-24T14:05:13.628256Z

Period
717.99 min
Inclination
55.6688°
Eccentricity
0.0038010
Mean motion
2.00560610 rev/d
Perigee alt
20,081.5 km
Apogee alt
20,283.4 km
Semi-major
26,560.6 km
B*
0.0000e+0
RAAN
93.1171°
Arg perigee
198.5017°
Mean anomaly
164.9098°
Rev number
5,460

§ Raw data

GPS BIII-1  (PRN 04)1 43873U 18109A   26144.58696329  .00000004  00000+0  00000+0 0  99912 43873  55.6688  93.1171 0038010 198.5017 164.9098  2.00560610 54602

JSON: /api/v1/satellites/43873 · /tle

For live sub-satellite position, see the globe view (requires WebGL).

§ Visibility from observer

Set your observer location to see the next 7 days of passes ≥ 10°. The values pass through the URL so the page stays shareable.

No JS? Fill the form by hand. The geolocation button needs JavaScript.